Date,TemperatureHighF,TemperatureAvgF,TemperatureLowF,DewpointHighF,DewpointAvgF,DewpointLowF,HumidityHigh,HumidityAvg,HumidityLow,PressureMaxIn,PressureMinIn,WindSpeedMaxMPH,WindSpeedAvgMPH,GustSpeedMaxMPH,PrecipitationSumIn
2014-1-1,20.4,16.7,12.6,14.0,9.0,6.3,87,72,63,30.40,30.24,13,4,17,0.00
2014-1-2,12.6,8.5,-2.4,9.6,5.7,-5.6,90,88,86,30.33,29.96,5,2,9,0.00
2014-1-3,6.3,-0.2,-7.0,1.7,-4.5,-10.3,87,81,70,30.47,29.98,15,4,21,0.00
2014-1-4,31.6,20.0,2.6,11.7,5.2,-3.7,81,54,35,30.41,30.08,7,2,12,0.00
2014-1-5,47.2,33.3,24.2,43.9,22.2,10.2,98,65,42,30.19,29.49,11,2,17,0.14
2014-1-6,51.2,31.1,5.7,47.7,23.4,-6.3,94,73,48,29.77,29.25,27,14,40,0.20
2014-1-7,6.3,3.4,-1.4,-2.3,-8.1,-12.2,72,58,46,30.29,29.76,22,12,36,0.00
2014-1-8,19.4,12.3,5.9,9.1,3.6,-3.9,81,68,55,30.48,30.29,7,3,16,0.00
2014-1-9,26.0,19.8,15.4,14.8,12.0,8.5,84,72,59,30.66,30.44,10,4,22,0.00
2014-1-10,39.6,30.5,17.4,36.3,26.9,13.1,95,87,75,30.45,30.03,6,1,10,0.10
2014-1-11,54.9,47.9,39.5,50.4,44.0,33.5,95,86,73,30.04,29.22,21,8,37,0.21
2014-1-12,40.8,35.1,29.6,33.9,29.2,25.5,86,79,72,29.98,29.39,20,9,35,0.00
2014-1-13,51.0,43.1,30.4,39.8,29.4,24.8,82,60,42,29.97,29.66,10,4,16,0.06
2014-1-14,45.2,40.7,29.8,42.5,38.2,27.2,96,91,83,29.84,29.64,9,3,13,0.26
2014-1-15,41.8,33.1,27.2,35.9,28.9,21.7,95,85,71,29.99,29.79,9,2,15,0.01
2014-1-16,35.4,29.0,24.6,23.3,20.7,18.2,84,72,52,30.00,29.86,5,1,8,0.00
2014-1-17,40.6,33.7,27.3,27.0,23.5,18.7,83,66,51,29.87,29.81,7,3,13,0.00
2014-1-18,31.9,24.4,19.3,28.1,21.1,13.9,96,87,78,29.87,29.76,12,6,20,0.00
2014-1-19,31.0,23.9,14.6,26.6,17.8,11.9,92,78,64,29.85,29.49,16,5,24,0.00
2014-1-20,31.6,18.8,7.4,24.8,14.3,4.2,88,83,74,30.03,29.51,12,3,19,0.00
2014-1-21,7.5,0.7,-8.5,4.4,-5.5,-14.6,87,75,58,30.16,30.02,8,2,11,0.00
2014-1-22,4.3,-4.3,-11.7,-2.9,-10.2,-17.7,84,75,67,30.14,30.03,13,3,19,0.00
2014-1-23,13.1,5.5,-0.9,6.6,1.3,-4.1,89,83,69,30.32,30.08,12,3,17,0.00
2014-1-24,17.8,10.6,1.6,4.4,0.5,-2.8,89,65,43,30.37,29.78,10,5,19,0.00
2014-1-25,27.2,20.7,12.4,20.8,9.6,-0.6,93,63,43,29.78,29.27,22,7,31,0.00
2014-1-26,25.6,12.8,4.7,19.0,5.0,-4.4,89,71,50,29.80,29.55,21,6,22,0.00
2014-1-27,37.3,19.7,6.2,27.8,9.4,-6.5,94,64,49,30.10,29.30,28,12,43,0.00
2014-1-28,11.3,5.6,1.4,-5.1,-7.7,-13.3,67,54,46,30.35,30.10,12,5,23,0.00
2014-1-29,16.2,9.0,0.4,4.5,-3.4,-10.3,68,57,46,30.27,30.06,13,6,25,0.00
2014-1-30,29.7,20.1,9.5,7.5,4.1,-0.6,66,51,36,30.36,29.91,9,4,16,0.00
2014-1-31,35.1,31.1,25.5,23.2,15.2,5.5,68,52,40,30.19,29.93,9,2,17,0.00
2014-2-1,43.5,34.6,25.2,32.1,25.7,19.5,94,71,48,30.24,29.85,8,2,15,0.17
2014-2-2,43.9,33.5,27.0,33.6,28.3,21.9,93,82,56,30.20,29.83,12,6,17,0.02
2014-2-3,26.9,23.8,18.7,21.8,17.0,12.7,85,75,65,30.39,30.18,10,4,14,0.00
2014-2-4,28.1,23.1,18.1,17.4,14.5,10.9,81,70,52,30.49,30.22,6,1,9,0.00
2014-2-5,26.0,21.2,12.6,24.8,19.1,9.6,95,91,72,30.30,29.71,5,1,9,0.00
2014-2-6,19.5,13.0,4.2,11.5,7.1,0.9,88,77,63,30.35,30.19,6,1,9,0.00
2014-2-7,20.9,14.6,6.6,13.7,4.8,-1.6,85,65,48,30.31,30.20,12,4,17,0.00
2014-2-8,18.4,11.7,4.4,6.4,2.2,-3.2,74,65,57,30.35,30.22,9,2,14,0.00
2014-2-9,22.5,17.0,10.0,17.3,11.9,5.3,92,81,62,30.22,29.97,11,2,16,0.00
2014-2-10,21.0,16.5,12.2,16.5,12.4,7.0,91,84,73,30.30,30.03,16,6,23,0.00
2014-2-11,17.2,12.5,9.4,11.9,8.5,5.3,90,84,74,30.53,30.30,12,5,16,0.00
2014-2-12,26.7,15.2,1.9,12.1,5.9,-0.8,90,68,41,30.56,30.22,6,1,9,0.00
2014-2-13,26.3,19.8,11.7,24.0,14.4,4.7,95,80,57,30.23,29.39,11,2,17,0.00
2014-2-14,32.4,25.6,20.0,24.8,21.5,18.6,95,85,63,29.75,29.34,15,9,24,0.00
2014-2-15,29.5,25.8,18.9,25.4,21.8,14.4,91,85,75,29.90,29.75,20,5,36,0.00
2014-2-16,18.7,15.5,11.1,15.7,12.3,6.1,91,87,78,30.24,29.90,16,8,19,0.00
2014-2-17,22.5,11.5,-2.3,8.1,2.9,-5.5,90,69,48,30.49,30.12,6,1,8,0.00
2014-2-18,34.7,27.0,16.7,27.1,18.4,5.2,82,70,38,30.12,29.86,14,6,27,0.00
2014-2-19,44.9,34.2,20.4,36.3,28.2,16.3,92,79,58,30.07,29.60,20,4,30,0.02
2014-2-20,45.1,36.3,31.0,33.1,29.4,26.1,96,77,49,30.17,29.86,8,1,13,0.40
2014-2-21,46.7,38.5,34.1,44.4,34.3,24.0,96,86,51,29.88,29.57,14,3,20,0.74
2014-2-22,46.9,41.0,35.4,27.1,20.7,8.1,62,45,22,29.93,29.77,19,8,33,0.00
2014-2-23,42.4,37.1,26.8,30.7,24.5,10.4,75,61,38,29.96,29.85,14,6,21,0.00
2014-2-24,26.8,21.9,18.0,22.0,13.6,8.4,92,70,58,30.07,29.88,24,11,33,0.00
2014-2-25,21.3,17.5,14.9,16.1,10.3,6.4,91,74,55,30.06,29.90,16,6,24,0.00
2014-2-26,18.3,12.5,4.6,14.3,0.7,-7.2,87,59,39,29.97,29.80,20,8,29,0.00
2014-2-27,21.4,12.2,5.1,13.1,1.7,-6.0,87,63,45,30.09,29.55,28,10,37,0.00
2014-2-28,16.2,7.9,2.4,5.7,1.0,-3.1,87,74,45,30.42,30.09,12,4,16,0.00
2014-3-1,35.6,23.5,6.2,25.0,9.5,-2.3,87,57,38,30.34,30.06,13,3,18,0.00
2014-3-2,28.0,17.1,10.2,24.6,13.4,4.0,91,85,74,30.22,30.11,14,6,18,0.00
2014-3-3,12.2,8.1,5.4,6.7,1.4,-2.9,88,74,55,30.42,30.17,13,4,18,0.00
2014-3-4,19.8,11.6,1.9,12.4,5.2,-4.3,88,75,60,30.42,30.26,7,1,11,0.00
2014-3-5,22.6,16.2,7.6,16.2,10.2,0.5,89,77,60,30.61,30.24,12,2,20,0.00
2014-3-6,27.6,13.1,-3.8,9.0,2.0,-6.7,88,63,40,30.69,30.38,3,1,6,0.01
2014-3-7,46.2,29.6,11.8,25.9,16.4,2.3,82,59,42,30.38,29.90,6,2,11,0.00
2014-3-8,37.5,30.1,23.2,29.8,24.2,17.3,89,79,70,30.00,29.84,11,4,16,0.00
2014-3-9,30.2,26.7,20.7,24.8,17.2,11.4,86,68,53,30.12,29.81,14,6,19,0.00
2014-3-10,49.1,36.8,27.7,36.0,27.7,18.0,84,70,57,29.82,29.47,11,1,18,0.00
2014-3-11,51.1,44.4,40.1,36.6,33.5,30.5,78,66,48,29.70,29.49,11,5,17,0.00
2014-3-12,40.6,28.5,11.6,36.4,26.3,9.7,96,92,72,29.68,29.24,3,0,4,0.20
2014-3-13,16.1,10.9,5.9,9.8,5.8,0.7,92,80,65,30.10,29.61,22,6,31,0.00
2014-3-14,46.9,25.5,13.5,27.1,13.9,6.4,74,63,46,30.10,29.59,11,4,17,0.24
2014-3-15,46.6,37.7,23.9,37.3,29.3,14.5,86,72,45,30.12,29.59,21,10,31,0.06
2014-3-16,23.8,17.2,9.3,16.9,8.3,3.4,83,68,56,30.34,30.11,15,7,29,0.00
2014-3-17,28.3,16.2,4.8,7.8,4.0,-0.8,89,62,29,30.27,30.09,3,1,19,0.00
2014-3-18,44.9,27.5,11.2,20.1,11.7,3.8,74,54,31,30.23,30.13,4,1,8,0.00
2014-3-19,48.2,39.4,32.0,35.6,21.4,6.7,85,51,30,30.18,29.71,15,5,22,0.01
2014-3-20,43.0,37.1,30.5,38.1,31.9,27.9,93,82,70,29.88,29.64,17,9,40,0.00
2014-3-21,35.7,30.4,24.8,27.8,23.0,20.0,90,74,61,30.07,29.88,18,9,33,0.00
2014-3-22,43.7,34.7,25.4,36.2,27.3,21.4,85,75,51,30.05,29.56,26,9,34,0.02
2014-3-23,32.8,22.6,17.6,27.4,15.2,8.8,92,73,60,30.24,30.02,19,8,26,0.00
2014-3-24,23.7,19.1,14.4,17.2,12.2,8.9,89,75,55,30.28,30.13,14,6,26,0.00
2014-3-25,38.9,26.9,17.2,22.7,13.3,6.8,83,60,29,30.13,29.88,8,3,25,0.00
2014-3-26,28.1,21.2,17.8,23.2,13.1,6.2,90,71,52,30.27,29.95,23,11,43,0.00
2014-3-27,42.4,29.9,16.2,25.9,12.8,7.0,76,52,31,30.36,30.03,9,4,30,0.00
2014-3-28,56.2,44.2,35.2,46.3,36.2,24.5,90,74,56,30.15,29.74,19,7,39,0.30
2014-3-29,42.5,38.2,34.9,38.5,35.2,33.3,97,89,78,30.24,29.84,11,2,39,1.16
2014-3-30,35.7,33.2,30.7,34.8,31.1,28.3,98,92,80,30.00,29.78,8,4,19,0.50
2014-3-31,44.8,36.7,30.9,33.1,28.7,25.6,82,73,56,30.22,30.00,8,4,21,0.00
2014-4-1,59.6,42.2,26.9,36.2,30.6,24.2,92,66,37,30.19,29.84,5,1,11,0.00
2014-4-2,51.8,42.5,35.0,36.1,31.9,27.8,82,67,48,30.18,29.92,15,4,24,0.00
2014-4-3,45.3,36.5,28.3,30.0,26.6,23.4,83,68,51,30.24,30.07,8,2,14,0.00
2014-4-4,48.8,42.5,36.6,41.1,35.5,27.2,89,76,66,30.06,29.57,14,4,25,0.23
2014-4-5,45.3,38.3,31.8,41.9,30.8,24.0,95,75,58,30.13,29.61,21,11,42,0.03
2014-4-6,53.9,31.1,28.5,99.9,-7.2,-99.9,100,39,34,30.23,30.12,10,-267,26,0.00
2014-4-7,51.3,39.7,31.2,38.7,30.9,19.6,95,73,29,30.14,29.51,12,2,27,0.66
2014-4-8,57.0,45.2,39.9,48.4,40.9,35.9,98,85,72,29.68,29.25,19,8,38,0.41
2014-4-9,46.4,40.7,35.5,37.1,28.4,18.5,90,65,35,30.00,29.66,14,5,25,0.00
2014-4-10,70.1,54.2,35.6,38.4,30.8,22.6,61,43,26,30.01,29.72,10,6,27,0.00
2014-4-11,62.8,52.5,45.8,48.9,41.8,30.0,95,69,37,30.03,29.80,13,3,27,0.08
2014-4-12,66.2,54.1,42.5,43.4,39.5,35.2,91,61,35,30.18,30.03,11,3,21,0.00
2014-4-13,83.5,64.5,48.3,55.0,48.2,35.3,88,58,34,30.07,29.73,10,3,24,0.05
2014-4-14,78.5,68.8,56.5,59.9,55.6,51.0,95,65,44,29.80,29.54,24,6,42,0.49
2014-4-15,64.8,43.0,27.0,58.3,39.4,18.9,97,88,71,30.08,29.43,25,12,40,0.45
2014-4-16,36.7,28.8,22.4,22.0,17.6,11.3,93,65,37,30.60,30.07,16,6,38,0.00
2014-4-17,55.3,39.9,23.8,25.2,21.2,16.4,83,51,26,30.67,30.46,9,3,19,0.00
2014-4-18,62.7,48.6,38.2,40.7,31.9,23.7,80,53,36,30.48,30.15,11,4,26,0.00
2014-4-19,53.1,44.1,35.9,40.0,33.3,28.3,84,67,40,30.42,30.23,12,5,26,0.00
2014-4-20,70.4,51.6,30.2,33.7,28.7,22.8,91,49,17,30.47,30.14,5,2,13,0.00
2014-4-21,76.3,63.6,51.5,40.2,34.8,28.3,52,36,18,30.15,29.71,7,2,14,0.00
2014-4-22,64.7,57.0,44.5,55.4,44.8,35.3,92,67,34,29.71,29.48,20,7,31,0.15
2014-4-23,44.7,41.3,39.1,39.7,35.1,26.5,97,79,57,29.94,29.59,19,11,32,0.09
2014-4-24,51.2,41.8,34.3,27.1,23.1,20.4,63,48,31,30.08,29.94,14,7,29,0.00
2014-4-25,67.7,50.5,32.5,46.2,29.4,22.7,90,50,20,30.05,29.63,9,3,21,0.14
2014-4-26,51.4,45.2,41.1,46.6,40.9,38.1,93,85,71,29.94,29.64,16,7,34,0.14
2014-4-27,52.2,43.9,38.1,39.2,36.9,33.8,94,77,56,30.22,29.94,10,5,25,0.02
2014-4-28,61.9,49.0,35.2,38.3,34.2,30.3,85,59,35,30.21,30.01,5,2,13,0.00
2014-4-29,53.6,48.9,44.8,45.2,40.6,35.9,91,74,55,30.25,30.02,12,6,24,0.39
2014-4-30,54.2,47.3,43.6,50.1,43.2,38.5,97,86,77,30.26,29.82,10,4,20,0.71
2014-5-1,61.9,53.9,47.6,56.3,47.8,36.8,98,81,51,29.84,29.70,10,2,21,0.09
2014-5-2,56.7,51.9,48.7,44.8,41.3,37.0,81,67,50,29.81,29.69,15,5,32,0.00
2014-5-3,61.4,54.0,48.7,50.3,44.4,42.4,89,71,54,29.81,29.65,10,3,28,0.08
2014-5-4,52.7,47.8,42.9,44.1,39.3,36.1,88,73,56,29.89,29.65,29,13,48,0.02
2014-5-5,57.7,48.2,40.7,39.4,35.1,30.1,86,63,39,30.01,29.89,17,7,34,0.00
2014-5-6,59.3,50.9,43.1,39.0,35.2,31.4,80,56,39,30.12,29.89,11,3,23,0.00
2014-5-7,65.6,51.7,35.7,39.2,33.6,28.1,90,55,27,30.26,30.12,3,1,8,0.00
2014-5-8,76.7,61.6,47.0,55.5,45.6,35.7,86,57,41,30.12,29.99,4,1,10,0.05
2014-5-9,85.8,69.7,56.3,65.0,60.0,54.4,97,75,42,30.02,29.76,18,3,31,0.38
2014-5-10,74.7,67.5,58.5,62.2,53.7,33.9,94,64,32,29.90,29.74,19,6,34,0.55
2014-5-11,73.5,61.5,51.4,44.2,41.6,37.8,73,50,28,30.08,29.89,11,4,21,0.00
2014-5-12,84.2,69.4,53.4,60.4,49.9,41.4,74,51,33,30.08,29.98,7,1,13,0.00
2014-5-13,87.0,72.6,62.2,66.8,60.2,54.5,92,67,44,30.09,29.97,6,1,14,0.58
2014-5-14,87.8,72.2,60.3,65.2,60.1,52.3,95,68,42,30.11,29.99,7,3,17,0.59
2014-5-15,84.5,74.2,65.8,66.1,63.0,57.6,93,69,42,30.05,29.84,11,5,26,0.22
2014-5-16,66.3,52.9,43.5,64.2,50.6,40.9,97,92,82,29.96,29.78,10,3,17,1.11
2014-5-17,59.0,48.3,42.5,43.1,39.6,36.5,93,73,50,30.16,29.92,10,2,21,0.00
2014-5-18,60.6,49.6,40.1,46.3,38.2,28.3,93,69,33,30.27,30.16,12,2,21,0.05
2014-5-19,67.7,52.1,40.8,46.3,40.5,34.8,85,66,38,30.23,30.13,11,2,23,0.00
2014-5-20,74.0,61.0,47.6,48.6,43.5,38.1,82,55,31,30.17,29.99,6,1,15,0.00
2014-5-21,73.6,62.7,52.8,60.0,53.4,46.0,87,73,50,29.99,29.78,5,1,13,0.00
2014-5-22,75.3,65.1,58.9,63.9,59.7,52.3,94,83,65,29.84,29.74,9,2,19,0.02
2014-5-23,55.5,53.6,50.3,52.7,51.1,48.6,96,91,84,30.01,29.87,7,3,18,0.71
2014-5-24,71.6,60.1,53.4,57.8,53.5,51.6,95,80,54,30.10,29.99,8,3,18,0.00
2014-5-25,77.4,66.5,55.7,53.3,48.9,44.1,81,55,32,30.10,30.00,11,3,21,0.00
2014-5-26,83.4,73.8,63.8,56.8,51.1,45.2,66,46,34,30.00,29.85,14,6,27,0.00
2014-5-27,84.2,75.9,69.4,66.1,59.9,50.4,77,58,46,29.85,29.71,10,4,21,0.00
2014-5-28,72.4,59.9,53.7,65.0,55.1,51.4,97,84,73,30.11,29.75,8,4,17,0.00
2014-5-29,70.3,61.5,55.8,54.9,51.8,48.8,82,71,56,30.16,30.06,3,1,7,0.00
2014-5-30,74.1,62.1,49.9,57.6,52.1,48.4,96,72,43,30.14,30.06,8,2,23,0.00
2014-5-31,75.3,62.4,50.0,52.0,47.2,40.1,91,62,30,30.25,30.13,6,1,16,0.00
2014-6-1,82.7,67.5,48.7,51.9,48.8,45.3,91,55,31,30.29,30.10,4,2,14,0.00
2014-6-2,91.1,76.3,65.0,69.1,59.1,50.5,93,57,38,30.10,29.87,10,2,20,0.02
2014-6-3,85.3,75.9,64.5,69.8,66.0,53.8,93,72,52,29.91,29.70,10,3,20,0.04
2014-6-4,71.7,64.3,54.4,56.8,52.0,47.4,80,65,54,29.87,29.74,9,3,24,0.00
2014-6-5,65.2,58.9,53.9,53.3,49.6,46.9,82,71,60,29.85,29.70,10,4,21,0.00
2014-6-6,71.4,61.1,53.3,54.7,51.9,49.5,91,73,53,29.98,29.84,9,4,19,0.00
2014-6-7,81.6,67.1,53.4,57.8,51.6,48.3,90,61,33,30.04,29.92,7,2,15,0.00
2014-6-8,84.3,69.2,52.0,61.6,54.8,48.4,95,64,36,29.95,29.77,10,1,17,0.31
2014-6-9,71.8,67.2,62.9,64.7,63.3,61.4,96,88,77,29.93,29.84,3,0,8,0.00
2014-6-10,82.8,71.6,64.9,68.0,64.8,63.4,95,80,56,29.95,29.88,2,0,7,0.00
2014-6-11,71.7,67.7,65.2,66.0,62.5,59.4,95,84,77,29.96,29.90,7,2,13,0.08
2014-6-12,71.9,68.3,65.0,66.0,63.4,60.2,89,84,80,29.93,29.81,5,2,14,0.02
2014-6-13,84.1,70.6,63.9,70.2,65.4,57.4,96,84,59,29.81,29.65,14,2,34,0.20
2014-6-14,63.7,57.1,51.4,57.8,50.1,45.6,84,77,71,30.07,29.81,11,5,19,0.00
2014-6-15,74.3,62.9,55.7,57.2,53.3,50.9,88,72,52,30.19,30.07,7,2,14,0.00
2014-6-16,88.2,69.0,50.5,69.2,58.0,48.9,96,73,32,30.12,29.93,3,0,8,0.12
2014-6-17,90.5,76.5,64.1,70.7,66.0,59.9,97,74,38,30.04,29.67,19,2,41,0.37
2014-6-18,74.8,68.9,65.0,69.0,64.4,62.2,96,86,72,30.00,29.75,14,5,25,0.00
2014-6-19,76.8,69.6,57.3,64.1,53.2,38.0,96,61,27,30.08,29.97,8,2,18,0.00
2014-6-20,71.7,62.6,49.9,50.7,46.9,42.7,83,58,38,30.09,29.98,7,2,14,0.00
2014-6-21,78.0,64.8,49.2,52.7,48.6,45.9,91,59,36,30.01,29.90,3,1,11,0.00
2014-6-22,83.2,67.6,51.9,53.6,49.9,46.6,87,57,31,29.99,29.93,3,1,10,0.00
2014-6-23,85.3,71.9,53.7,64.0,57.5,49.3,87,62,44,30.04,29.93,4,1,13,0.00
2014-6-24,85.9,75.2,67.8,71.9,66.2,61.2,95,74,59,29.96,29.82,8,3,21,1.17
2014-6-25,74.3,70.2,66.8,70.7,68.5,65.9,97,95,87,29.88,29.81,6,1,31,0.88
2014-6-26,81.5,71.3,64.4,67.7,64.7,61.3,98,81,57,30.01,29.84,6,3,13,0.00
2014-6-27,88.3,73.3,59.9,65.4,58.8,52.5,97,65,32,30.16,30.01,2,0,7,0.00
2014-6-28,88.4,75.1,60.2,69.1,62.6,54.8,89,67,45,30.21,30.12,3,0,9,0.00
2014-6-29,92.6,79.1,68.8,71.9,65.2,60.4,76,63,46,30.15,29.97,5,2,13,0.05
2014-6-30,91.3,80.3,72.7,73.8,68.3,62.5,79,68,51,29.98,29.81,4,1,14,0.00
2014-7-1,92.6,82.0,75.2,76.7,71.4,67.6,83,71,50,29.81,29.65,8,3,21,0.00
2014-7-2,89.3,79.5,71.9,72.8,69.3,65.8,90,72,49,29.88,29.68,8,2,23,0.02
2014-7-3,81.6,70.9,64.8,71.0,66.6,63.3,95,87,69,29.95,29.86,5,1,14,0.25
2014-7-4,72.3,64.4,58.3,63.3,56.6,51.1,95,78,51,30.12,29.94,13,6,25,0.23
2014-7-5,79.0,67.9,57.3,59.0,53.7,46.4,87,63,36,30.18,30.05,11,5,23,0.00
2014-7-6,83.8,73.3,65.0,58.1,52.5,47.4,59,49,35,30.05,29.81,8,4,22,0.00
2014-7-7,80.4,73.3,67.4,71.0,64.1,54.1,89,73,59,29.81,29.62,11,4,28,0.18
2014-7-8,88.0,78.4,71.6,73.2,69.0,66.9,87,74,56,29.70,29.44,8,3,23,0.55
2014-7-11,84.1,77.3,66.6,57.5,55.5,51.6,71,49,36,30.19,30.15,3,0,27,0.00
2014-7-12,89.2,74.0,62.0,70.3,61.9,56.2,87,68,44,30.17,29.99,6,1,15,0.00
2014-7-13,79.8,74.9,69.0,73.0,68.2,62.4,90,80,67,29.99,29.73,7,3,20,0.07
2014-7-14,83.1,73.1,67.9,71.7,68.2,63.3,97,85,63,29.86,29.76,8,1,27,0.40
2014-7-15,82.9,71.6,65.5,69.9,65.6,55.6,99,82,61,29.76,29.65,8,2,16,0.04
2014-7-16,73.8,66.5,60.5,61.8,56.3,53.8,83,70,59,29.92,29.75,8,2,17,0.00
2014-7-17,72.2,64.0,57.4,60.9,55.9,52.8,87,76,53,30.11,29.92,9,2,15,0.04
2014-7-18,80.0,67.7,56.3,60.8,55.7,52.5,90,67,43,30.22,30.11,5,1,11,0.00
2014-7-19,82.1,70.3,58.3,61.0,57.2,53.5,90,65,40,30.21,30.11,3,1,9,0.00
2014-7-20,84.1,73.8,66.9,62.5,59.5,57.3,75,62,41,30.13,30.04,3,1,7,0.00
2014-7-21,87.3,77.3,69.1,69.1,64.6,60.0,77,66,49,30.13,30.05,4,1,12,0.00
2014-7-22,90.6,79.2,67.2,72.1,68.7,65.3,95,72,47,30.10,29.89,4,1,12,0.00
2014-7-23,86.0,75.7,67.0,73.0,68.7,60.2,94,79,64,29.91,29.75,11,4,27,0.43
2014-7-24,71.9,65.5,60.4,60.4,53.3,49.3,80,65,47,29.99,29.89,9,3,18,0.00
2014-7-25,79.0,67.5,57.6,60.0,55.3,50.9,87,67,45,30.04,29.92,7,2,15,0.00
2014-7-26,77.9,67.8,61.4,61.0,58.6,54.8,88,74,53,29.95,29.76,5,1,13,0.00
2014-7-27,82.3,74.0,66.4,70.9,65.7,60.8,97,76,61,29.76,29.58,7,2,18,0.58
2014-7-28,71.3,63.9,58.8,66.1,62.0,57.3,97,94,77,29.77,29.49,5,2,20,1.20
2014-7-29,71.0,62.0,55.9,58.0,54.2,49.7,96,77,48,29.97,29.76,7,3,16,0.00
2014-7-30,77.0,63.3,55.8,59.2,55.6,51.3,94,78,51,29.98,29.92,9,2,20,0.26
2014-7-31,78.2,65.1,57.1,63.0,58.7,55.5,96,81,53,30.08,29.96,8,1,14,0.21
2014-8-1,86.6,72.5,59.7,66.5,61.5,57.3,93,71,41,30.13,30.07,8,1,14,0.00
2014-8-2,84.8,74.0,64.5,69.5,64.8,60.9,92,74,49,30.11,30.01,3,1,16,0.00
2014-8-3,85.8,69.0,63.8,68.9,64.6,62.3,97,87,54,30.08,29.98,5,1,10,1.21
2014-8-4,83.7,71.2,63.9,67.8,64.7,62.8,97,82,53,30.07,30.00,5,1,11,0.00
2014-8-5,80.0,69.9,62.8,69.6,64.2,61.1,95,83,64,30.01,29.94,6,2,14,0.00
2014-8-6,76.6,68.6,64.2,64.5,59.0,50.0,96,74,42,29.95,29.90,8,3,20,0.00
2014-8-7,75.8,67.6,60.8,61.0,57.4,52.2,90,71,46,30.04,29.92,10,4,21,0.00
2014-8-8,78.4,67.5,58.1,63.0,58.5,55.3,92,74,49,30.12,30.04,7,2,14,0.00
2014-8-9,82.8,67.9,55.3,63.3,57.7,53.1,94,72,44,30.15,30.09,6,1,13,0.00
2014-8-10,85.8,70.8,56.7,64.1,59.2,54.4,94,70,39,30.16,30.06,2,0,6,0.00
2014-8-11,86.6,73.7,61.0,67.0,60.8,57.9,94,67,41,30.07,29.95,4,1,11,0.00
2014-8-12,73.1,68.5,64.2,66.4,62.8,57.8,93,82,66,29.95,29.72,8,3,17,0.81
2014-8-13,73.9,67.0,59.5,66.6,62.5,53.4,98,86,62,29.81,29.68,13,4,24,0.86
2014-8-14,66.2,59.1,55.2,55.6,52.7,50.3,91,80,62,29.88,29.78,10,4,23,0.05
2014-8-15,66.8,59.6,52.8,55.0,52.2,49.6,92,77,59,29.91,29.85,9,4,19,0.03
2014-8-16,73.3,64.0,57.1,60.0,55.4,51.3,94,75,57,29.92,29.82,6,2,14,0.51
2014-8-17,69.8,64.1,59.1,61.1,59.1,56.7,96,84,68,29.94,29.79,10,3,17,0.02
2014-8-18,72.1,63.2,54.8,58.2,55.4,51.3,91,77,56,29.95,29.87,6,1,12,0.00
2014-8-19,83.5,65.8,48.8,66.2,57.6,47.7,97,77,54,29.90,29.82,2,0,7,0.00
2014-8-20,80.5,70.1,62.7,71.3,66.8,61.1,98,90,71,29.93,29.84,3,0,9,0.23
2014-8-21,75.9,68.4,65.7,72.2,67.0,65.1,99,95,82,29.95,29.90,7,0,12,0.53
2014-8-22,78.8,69.6,64.6,70.9,66.6,62.8,98,91,74,30.00,29.92,2,0,5,0.01
2014-8-23,73.5,67.6,62.6,65.9,63.4,60.7,94,87,72,30.12,29.99,3,0,7,0.01
2014-8-24,84.6,69.8,58.1,65.0,60.3,55.4,99,76,40,30.18,30.10,2,0,6,0.01
2014-8-25,87.1,71.5,58.3,67.0,61.0,56.9,98,73,41,30.19,30.08,2,0,7,0.00
2014-8-26,86.3,74.5,60.9,64.2,59.7,56.3,87,62,40,30.11,29.96,4,2,11,0.00
2014-8-27,77.7,72.2,63.0,68.7,64.1,56.3,89,76,60,29.98,29.92,8,3,17,0.00
2014-8-28,68.3,63.0,58.2,59.4,55.4,48.8,91,77,55,30.10,29.93,14,5,26,0.00
2014-8-29,78.5,64.8,52.0,60.3,55.1,50.3,95,73,46,30.20,30.10,3,0,11,0.00
2014-8-30,84.7,71.0,57.6,68.5,61.6,54.2,89,73,54,30.14,29.96,6,2,13,0.00
2014-8-31,78.4,74.2,70.7,72.1,69.4,66.4,95,85,78,29.97,29.88,6,2,15,0.24
2014-9-1,88.2,77.0,68.0,71.6,69.0,65.8,94,78,54,29.97,29.82,4,1,10,0.00
2014-9-2,85.8,74.9,63.2,73.4,68.7,61.6,95,82,61,29.85,29.72,9,2,18,0.55
2014-9-3,80.1,70.1,63.3,64.3,62.1,59.3,97,78,52,30.07,29.85,7,2,14,0.01
2014-9-4,87.5,74.6,62.1,69.6,63.9,58.3,89,71,48,30.10,30.01,4,1,11,0.00
2014-9-5,90.8,80.4,70.4,73.7,69.8,66.7,90,71,53,30.08,29.86,9,2,15,0.00
2014-9-6,79.9,69.2,62.6,69.1,63.8,58.2,94,83,69,29.99,29.81,11,3,24,0.01
2014-9-7,71.6,62.8,53.4,58.3,53.0,43.2,92,73,38,30.22,29.99,8,3,18,0.00
2014-9-8,79.6,63.7,48.9,58.7,52.7,47.3,96,71,42,30.30,30.20,4,1,10,0.00
2014-9-9,76.8,67.2,55.8,62.2,57.5,52.8,91,72,57,30.25,30.06,4,1,11,0.00
2014-9-10,78.2,70.1,62.0,65.6,61.3,57.6,87,74,63,30.07,29.74,8,2,21,0.00
2014-9-11,73.9,66.2,57.0,68.8,60.1,51.6,93,81,72,30.06,29.61,12,6,26,0.28
2014-9-12,58.8,52.2,44.6,51.5,46.6,42.4,94,82,62,30.25,30.06,6,2,14,0.02
2014-9-13,66.0,50.8,42.8,59.0,47.9,41.5,98,90,74,30.26,30.02,22,2,39,0.34
2014-9-14,62.2,52.5,45.0,48.0,44.4,41.8,90,75,54,30.34,30.23,5,1,11,0.00
2014-9-15,70.3,58.0,46.4,54.8,47.2,41.8,94,69,44,30.23,30.01,5,1,11,0.07
2014-9-16,66.0,57.5,52.0,55.7,51.0,45.1,96,81,50,30.03,29.97,10,3,18,0.21
2014-9-17,69.2,57.5,47.3,50.9,47.6,44.9,93,71,45,30.03,29.94,5,1,16,0.00
2014-9-18,59.9,54.4,45.1,54.2,48.8,39.6,89,81,75,30.22,29.95,7,2,12,0.00
2014-9-19,65.3,50.2,36.3,50.2,40.6,34.7,95,72,43,30.36,30.15,4,0,9,0.00
2014-9-20,75.1,66.9,57.9,62.0,57.8,50.2,81,73,62,30.15,29.88,7,5,21,0.00
2014-9-21,78.8,67.9,60.7,69.4,60.9,54.2,95,79,64,29.88,29.51,20,4,37,0.20
2014-9-22,61.5,52.5,49.3,54.8,46.3,42.2,95,80,67,30.18,29.60,14,6,29,0.00
2014-9-23,70.8,56.8,46.3,54.7,48.4,42.2,91,75,52,30.39,30.18,6,2,12,0.00
2014-9-24,77.5,62.2,48.0,58.1,53.4,46.7,97,76,47,30.53,30.39,2,0,5,0.00
2014-9-25,71.8,60.7,50.2,55.5,52.3,48.1,94,75,50,30.44,30.27,3,0,7,0.00
2014-9-26,75.5,60.4,49.1,61.7,54.5,48.1,97,82,58,30.31,30.22,6,1,13,0.00
2014-9-27,78.6,63.0,51.7,62.9,56.4,50.6,97,81,54,30.27,30.18,4,1,10,0.00
2014-9-28,79.9,63.8,51.3,63.1,56.4,50.3,98,79,47,30.18,30.00,3,0,9,0.00
2014-9-29,82.9,65.9,54.7,61.1,57.6,53.6,97,78,44,30.00,29.86,2,0,5,0.00
2014-9-30,78.4,64.6,53.5,65.1,59.5,52.4,98,85,59,29.94,29.84,2,0,6,0.38
2014-10-1,74.9,63.8,56.4,63.0,59.1,54.2,99,86,60,30.08,29.94,2,0,5,0.00
2014-10-2,76.2,62.4,51.7,60.1,55.7,50.7,97,80,52,30.14,30.03,3,0,8,0.00
2014-10-3,73.9,64.6,55.9,59.0,56.7,53.4,93,76,59,30.03,29.61,8,3,18,0.01
2014-10-4,64.8,55.7,44.5,58.2,51.7,36.1,95,86,71,29.68,29.50,12,3,22,0.47
2014-10-5,52.9,46.6,38.7,45.5,38.2,33.0,84,73,64,29.90,29.67,5,1,14,0.01
2014-10-6,68.5,56.5,43.3,48.3,41.7,35.1,77,59,44,29.90,29.80,7,4,23,0.00
2014-10-7,69.0,62.6,56.7,53.6,49.6,46.3,86,63,45,29.88,29.68,6,3,20,0.02
2014-10-8,62.4,56.7,49.9,55.4,46.6,33.1,94,70,46,29.89,29.60,16,5,37,0.75
2014-10-9,61.7,52.1,44.9,43.0,39.3,34.4,77,63,38,30.04,29.85,15,5,29,0.00
2014-10-10,57.6,49.6,44.0,44.6,41.5,39.6,86,74,54,30.12,30.03,8,2,19,0.00
2014-10-11,55.1,48.2,42.5,46.2,41.0,35.9,94,77,50,30.20,30.07,8,2,17,0.00
2014-10-12,62.4,48.4,36.5,43.7,39.8,34.7,96,74,47,30.31,30.19,2,0,6,0.00
2014-10-13,70.9,57.0,42.0,58.4,50.0,37.7,88,78,64,30.20,30.09,5,1,12,0.00
2014-10-14,82.0,71.9,62.1,65.0,61.4,57.5,87,71,52,30.09,29.86,8,4,28,0.00
2014-10-15,73.9,69.4,63.8,66.8,64.0,62.9,97,84,72,29.87,29.75,8,3,23,0.75
2014-10-16,73.2,64.3,55.1,65.0,60.7,52.4,99,89,55,29.75,29.56,8,1,15,0.92
2014-10-17,67.5,59.7,53.1,55.7,51.8,49.9,94,76,56,29.62,29.52,8,2,22,0.01
2014-10-18,59.3,53.0,43.8,53.8,49.6,42.4,96,89,75,29.82,29.49,12,4,23,0.17
2014-10-19,43.7,40.8,38.2,42.6,33.9,28.8,96,77,59,30.06,29.82,12,6,24,0.01
2014-10-20,54.0,47.7,38.8,45.0,38.2,31.6,88,70,57,30.03,29.85,4,2,13,0.07
2014-10-21,51.6,49.0,46.8,50.3,47.6,45.1,97,95,89,30.02,29.81,2,0,7,0.28
2014-10-22,53.5,47.9,44.9,47.6,44.9,42.4,97,90,77,30.15,30.02,4,2,10,0.02
2014-10-23,52.0,47.7,43.1,46.3,42.4,39.1,93,82,71,30.05,29.92,7,3,19,0.01
2014-10-24,59.5,51.1,47.2,47.7,43.2,36.2,93,76,50,29.95,29.88,13,5,26,0.00
2014-10-25,65.1,55.5,48.3,52.5,47.4,42.3,87,75,53,29.89,29.51,13,4,30,0.00
2014-10-26,54.6,47.6,43.8,46.6,43.0,38.8,95,85,62,29.84,29.54,16,9,31,0.37
2014-10-27,58.6,49.1,43.9,43.4,41.6,40.1,87,76,55,30.03,29.84,9,3,20,0.00
2014-10-28,78.0,61.2,47.3,60.9,51.7,41.6,95,73,46,29.91,29.71,8,1,16,0.30
2014-10-29,62.2,53.2,46.8,61.0,46.4,39.6,96,78,62,29.93,29.80,10,3,20,0.18
2014-10-30,47.4,44.2,40.0,43.2,39.1,35.8,94,82,70,30.05,29.92,9,4,20,0.04
2014-10-31,50.6,43.9,36.3,39.8,36.8,34.5,94,77,58,30.02,29.92,3,0,6,0.00
2014-11-1,43.9,40.0,37.0,38.3,35.6,33.0,94,84,74,30.07,29.95,5,2,13,0.09
2014-11-2,41.9,38.0,35.7,33.4,28.2,23.5,84,68,50,30.15,30.06,15,6,30,0.00
2014-11-3,57.6,48.2,38.1,36.9,30.6,19.8,78,53,27,30.16,30.04,13,6,25,0.00
2014-11-4,67.8,59.9,52.6,45.5,32.8,26.0,49,36,26,30.08,29.85,5,2,15,0.00
2014-11-5,58.7,50.4,40.5,50.3,40.6,35.3,88,70,43,30.12,29.87,12,4,25,0.04
2014-11-6,48.1,42.0,38.0,42.7,39.5,35.7,96,91,77,30.10,29.69,3,0,8,0.46
2014-11-7,40.5,37.0,33.8,39.2,34.6,29.7,95,91,81,29.96,29.68,12,4,27,0.15
2014-11-8,45.8,39.5,32.5,31.9,29.6,26.3,86,68,54,29.98,29.75,6,3,14,0.00
2014-11-9,46.9,43.1,40.4,38.3,33.8,30.7,86,70,56,29.95,29.77,8,3,16,0.00
2014-11-10,58.7,50.0,42.7,38.6,36.2,32.2,82,60,44,30.09,29.93,6,1,15,0.00
2014-11-11,66.2,57.8,51.8,51.4,42.0,37.2,75,56,40,29.94,29.74,10,6,25,0.00
2014-11-12,60.9,46.4,36.1,52.3,37.2,24.5,94,70,56,30.14,29.71,18,8,30,0.02
2014-11-13,36.8,33.6,30.5,30.0,26.9,23.0,95,78,60,30.12,30.02,10,3,17,0.00
2014-11-14,34.7,29.5,27.3,30.0,25.6,22.2,96,86,68,30.20,30.01,15,7,24,0.00
2014-11-15,36.2,30.5,24.3,28.1,25.1,19.6,94,80,68,30.35,30.20,7,2,16,0.00
2014-11-16,40.1,35.9,30.9,29.0,25.2,22.1,83,65,54,30.28,29.98,6,2,14,0.00
2014-11-17,38.2,34.5,31.4,36.5,32.1,21.3,97,91,64,29.99,29.48,18,3,29,0.67
2014-11-18,31.2,23.1,20.1,21.8,12.8,7.8,82,65,53,29.95,29.61,14,9,30,0.00
2014-11-19,29.0,23.5,17.9,19.2,11.6,7.3,85,61,41,30.18,29.81,11,5,31,0.00
2014-11-20,31.9,26.8,23.6,25.3,19.6,12.7,92,75,51,29.98,29.78,17,6,36,0.00
2014-11-21,28.8,23.6,19.8,20.4,15.4,12.2,90,71,55,30.45,29.98,13,7,24,0.00
2014-11-22,45.2,34.5,22.4,40.8,23.2,8.2,87,65,29,30.43,30.00,6,3,19,0.09
2014-11-23,54.1,50.1,44.4,43.4,40.2,34.0,88,70,49,30.07,29.75,8,4,19,0.07
2014-11-24,70.0,61.1,47.7,56.4,51.1,40.0,89,70,55,29.75,29.30,14,8,29,0.14
2014-11-25,47.7,43.1,35.8,40.3,31.3,27.0,85,64,49,30.21,29.65,16,6,28,0.00
2014-11-26,35.9,32.4,26.6,29.9,27.2,24.9,96,82,66,30.23,30.00,5,1,23,0.00
2014-11-27,29.3,27.8,25.7,27.3,26.2,23.2,96,93,90,30.08,30.00,3,1,6,0.00
2014-11-28,26.3,24.9,22.5,24.9,19.0,14.3,95,78,64,30.24,30.08,15,6,25,0.00
2014-11-29,36.2,28.7,22.3,27.8,20.4,15.6,76,71,66,30.25,29.96,8,4,23,0.00
2014-11-30,58.2,48.1,35.7,49.3,39.4,27.6,75,72,69,29.98,29.85,10,6,25,0.05
2014-12-1,57.9,39.4,28.3,50.0,32.7,17.1,95,77,62,30.60,29.85,17,10,33,0.02
2014-12-2,39.9,29.0,19.8,34.9,21.8,13.7,94,75,50,30.68,30.11,10,2,23,0.07
2014-12-3,44.4,39.9,33.7,40.2,34.9,25.6,95,82,70,30.18,29.91,17,6,28,0.10
2014-12-4,34.9,30.1,23.5,26.9,22.6,20.5,92,74,61,30.53,30.17,14,5,23,0.00
2014-12-5,38.4,30.2,20.8,35.6,26.3,18.8,93,86,66,30.55,30.26,7,1,15,0.01
2014-12-6,37.5,34.5,30.8,35.7,33.1,27.3,97,95,87,30.48,30.19,5,1,14,0.52
2014-12-7,30.8,24.6,19.6,27.6,16.4,12.1,88,71,52,30.74,30.48,5,2,13,0.00
2014-12-8,32.0,25.2,18.6,24.8,15.9,7.3,86,69,36,30.67,30.33,9,2,17,0.00
2014-12-9,36.3,31.3,26.3,33.9,28.4,22.1,94,89,83,30.33,29.96,6,2,12,0.09
2014-12-10,32.5,29.4,27.6,30.7,28.5,26.9,98,96,91,29.96,29.66,10,6,23,0.00
2014-12-11,27.8,25.9,24.0,27.2,24.8,21.5,98,96,90,29.90,29.65,12,6,24,0.00
2014-12-12,29.3,26.7,23.8,27.0,24.1,20.8,94,90,88,30.08,29.89,11,6,21,0.00
2014-12-13,33.6,30.2,25.0,32.8,28.3,22.4,97,93,86,30.07,29.94,10,5,18,0.03
2014-12-14,36.7,34.6,33.3,35.4,33.5,32.3,97,96,91,30.06,29.92,11,5,20,0.10
2014-12-15,36.6,34.8,33.8,34.8,33.0,31.6,97,93,88,30.12,30.04,7,2,12,0.00
2014-12-16,43.3,38.6,33.6,40.1,36.1,31.4,95,91,83,30.04,29.79,6,2,14,0.15
2014-12-17,42.9,38.8,31.6,40.3,36.4,29.8,95,91,84,29.91,29.77,13,6,25,0.08
2014-12-18,32.3,30.8,28.3,29.8,28.2,26.5,97,90,85,30.04,29.91,14,10,26,0.00
2014-12-19,28.2,26.0,23.9,26.7,23.2,20.6,94,89,85,30.26,30.02,15,7,27,0.00
2014-12-20,28.7,25.8,22.6,24.3,22.4,20.1,91,87,81,30.31,30.23,3,0,4,0.00
2014-12-21,30.8,27.6,25.6,26.0,23.8,22.3,89,86,81,30.36,30.29,2,0,4,0.00
2014-12-22,40.2,36.8,34.3,32.5,30.6,28.6,93,78,68,30.21,30.13,6,2,13,0.02
2014-12-23,43.9,38.0,34.0,42.5,36.9,32.3,97,96,93,30.13,29.96,4,1,9,0.18
2014-12-24,59.1,46.7,39.4,54.5,45.1,38.1,99,94,85,29.97,29.26,10,2,13,0.32
2014-12-25,60.2,44.9,40.0,55.2,36.5,30.3,85,73,60,30.11,29.26,19,10,40,0.03
2014-12-26,45.5,40.4,36.4,33.1,31.0,29.3,76,69,58,30.25,30.10,16,4,27,0.00
2014-12-27,53.8,47.6,37.6,40.4,36.8,30.3,79,66,55,30.20,29.86,7,2,23,0.00
2014-12-28,53.1,39.1,33.5,44.2,33.2,25.7,93,80,57,30.09,29.80,16,7,29,0.21
2014-12-29,34.2,28.9,25.1,27.2,21.8,16.1,87,75,64,30.30,30.08,9,4,20,0.00
2014-12-30,25.0,20.4,17.2,22.0,14.5,10.1,89,78,60,30.48,30.30,10,2,22,0.00
2014-12-31,23.2,20.5,17.6,12.1,8.1,4.0,70,58,45,30.33,30.02,16,8,30,0.00
2015-1-1,33.4,26.1,19.5,24.3,14.1,8.5,89,62,38,30.03,29.83,14,5,26,0.00
2015-1-2,30.9,27.1,19.4,26.2,22.6,17.5,93,83,66,30.47,29.95,15,6,27,0.00